Home   Weather   30°03'N, 94°12'W   Past weeks
Flag for USA

Past Weather in 30°03'N, 94°12'W, USA — Yesterday and Last 2 Weeks

Now
80 °F

Clear.


Feels Like: 85 °F
Forecast: 92 / 76 °F
Wind: 6 mph from Southwest

Location: Jefferson County Airport

Current Time: Jun 19, 2019 at 2:24:34 am

Latest Report: Jun 19, 2019 at 1:53 am


Visibility: 10 mi

Pressure: 29.88 "Hg

Humidity: 87%

Dew Point: 76 °F

Location of 30°03'N, 94°12'WLocation

Past Weather in 30°03'N, 94°12'W — Graph

°F

30°03'N, 94°12'W Temperature Yesterday

Maximum temperature yesterday: 93 °F (at 2:53 pm)
Minimum temperature yesterday: 72 °F (at 5:34 am)
Average temperature yesterday: 81 °F

High & Low Weather Summary for the Past Weeks

 TemperatureHumidityPressure
High95 °F (Jun 9, 1:53 pm)94% (Jun 4, 9:53 pm)30.09 "Hg (Jun 4, 9:53 pm)
Low71 °F (Jun 13, 6:53 am)32% (Jun 12, 4:53 pm)29.65 "Hg (Jun 7, 6:53 pm)
Average81 °F71%29.90 "Hg
* Reported Jun 4 12:53 am — Jun 19 12:53 am, 30°03'N, 94°12'W. Weather by CustomWeather, © 2019

Note: Actual official high and low records may vary slightly from our data, if they occured in-between our weather recording intervals... More about our weather records

Advertising

30°03'N, 94°12'W Weather History for the Previous 24 Hours

Scroll right to see more
 ConditionsComfort  
Time TempWeatherWind HumidityBarometerVisibility
12:53 am
Wed, Jun 19
81 °FClear.6 mph85%29.88 "Hg10 mi
11:53 pm
Tue, Jun 18
81 °FClear.3 mph85%29.90 "Hg10 mi
10:53 pm81 °FClear.6 mph82%29.88 "Hg10 mi
9:53 pm81 °FPassing clouds.5 mph82%29.87 "Hg10 mi
8:53 pm82 °FPassing clouds.7 mph79%29.85 "Hg10 mi
7:53 pm86 °FPassing clouds.7 mph67%29.85 "Hg10 mi
6:53 pm88 °FSunny.7 mph63%29.84 "Hg10 mi
5:53 pm89 °FScattered clouds.8 mph59%29.84 "Hg10 mi
4:53 pm92 °FScattered clouds.No wind49%29.85 "Hg10 mi
3:53 pm92 °FPassing clouds.9 mph49%29.85 "Hg10 mi
2:53 pm93 °FScattered clouds.5 mph49%29.88 "Hg10 mi
2:43 pm91 °FScattered clouds.7 mph52%29.89 "Hg10 mi
1:53 pm91 °FScattered clouds.8 mph50%29.91 "Hg10 mi
12:53 pm90 °FScattered clouds.5 mph52%29.93 "Hg10 mi
11:53 am89 °FScattered clouds.8 mph55%29.95 "Hg10 mi
10:53 am86 °FScattered clouds.5 mph65%29.95 "Hg10 mi
9:53 am85 °FScattered clouds.6 mph68%29.94 "Hg10 mi
8:53 am82 °FOvercast.6 mph74%29.93 "Hg10 mi
7:53 am77 °FPartly sunny.No wind90%29.93 "Hg10 mi
6:53 am74 °FPassing clouds.No wind91%29.92 "Hg10 mi
5:56 am73 °FPassing clouds.No wind94%29.91 "Hg8 mi
5:34 am72 °FFog.No wind93%29.91 "Hg1 mi
5:10 am73 °FFog.No wind94%29.90 "Hg4 mi
4:53 am73 °FFog.No wind94%29.89 "Hg1 mi
4:37 am73 °FFog.No wind94%29.90 "Hg3 mi
3:53 am74 °FClear.No wind94%29.89 "Hg10 mi
2:53 am74 °FFog.No wind94%29.90 "Hg5 mi
2:19 am75 °FClear.3 mph90%29.90 "Hg10 mi
2:11 am75 °FFog.3 mph90%29.90 "Hg2 mi
Weather by CustomWeather, © 2019

See weather overview